Location: ????????
(55.2516°N, 38.1213°E)
Time: 06:28:37
(UTC+00:00)

Daily predictions for brighter satellites

Satellite Brightness Start Highest point End
(mag) Time Altitude Azimuth Time Altitude Azimuth Time Altitude Azimuth
Cosmos 44 3.6 13:33:21 10° NW 13:38:32 85° SW 13:43:54 10° SE
Cosmos 304 Rocket 4.3 13:34:30 10° SW 13:39:12 59° WNW 13:43:56 10° NNE
Cosmos 1862 4.2 13:36:43 10° NNW 13:40:17 49° W 13:43:49 10° S
Cosmos 1656 Rocket 3.8 13:35:42 10° SW 13:41:21 82° NW 13:47:06 10° NNE
Cosmos 1570 Rocket 4.5 13:39:35 10° NNW 13:44:39 40° NE 13:49:40 10° ESE
Cosmos 1943 Rocket 3.4 13:40:15 10° WSW 13:45:16 33° NW 13:50:16 10° NNE
USA 290 4.1 13:44:00 10° N 13:45:47 14° NE 13:47:35 10° ENE
DMSP B5D2-2 4.2 13:42:29 10° NNE 13:47:42 85° WNW 13:52:55 10° SSW
IRS-1D 4.5 13:42:57 10° S 13:47:48 52° W 13:52:38 10° NNW
Cosmos 1455 Rocket 3.7 13:44:23 10° SSE 13:48:21 36° E 13:52:20 10° NNE
Cosmos 1814 Rocket 4.3 13:44:15 10° NNW 13:49:36 77° WSW 13:54:55 10° SSE
NOSS 3-3 (A) 4.5 13:44:49 10° NW 13:51:29 61° NNE 13:59:34 10° ESE
Cosmos 1607 4.2 13:46:02 10° NW 13:52:02 48° NNE 13:58:05 10° ESE
Meteor 1-28 Rocket 4.0 13:51:21 10° NE 13:54:14 26° E 13:57:06 10° SSE
CZ-2D R/B 4.0 13:52:35 10° ESE 13:54:59 21° ENE 13:57:25 10° NNE
Cosmos 1346 Rocket 3.5 13:52:00 10° NNW 13:55:38 52° W 13:59:11 10° S
Cosmos 1850 Rocket 4.0 13:50:39 10° SSW 13:55:48 71° ESE 14:00:58 10° NNE
Lacrosse 5 rocket 3.2 13:54:27 10° SSE 13:56:38 15° SE 13:58:48 10° E
Cosmos 1782 4.5 13:56:15 10° ESE 13:57:44 12° E 13:59:07 10° ENE
Cosmos 2263 4.4 13:53:36 10° SSW 13:59:17 64° ESE 14:05:01 10° NE
Cosmos 1743 3.9 13:57:38 10° NNE 13:59:42 16° ENE 14:01:46 10° ESE
GEOS 3 Rocket 4.2 13:58:16 10° NE 14:03:26 45° SE 14:08:34 10° SSW
Cosmos 2297 3.7 13:58:47 10° SSW 14:04:28 82° ESE 14:10:10 10° NE
SMAP 3.3 14:00:01 10° SE 14:04:30 49° ENE 14:09:00 10° N
Aureole 3 Rocket 4.1 14:00:31 10° SSW 14:04:41 54° WNW 14:10:28 10° N
YAOGAN 1 4.0 14:04:26 10° E 14:07:06 16° NE 14:09:46 10° NNE
CENTAUR R/B 3.0 14:03:17 10° SSW 14:08:39 43° ESE 14:14:57 11° NE
Meteor 2-1 Rocket 4.3 14:04:43 10° S 14:10:39 78° E 14:16:32 10° NNE
Landsat 7 4.1 14:06:58 10° SE 14:11:23 44° ENE 14:15:48 10° N
SJ 16-02 3.0 14:08:37 10° WSW 14:12:19 27° NW 14:16:01 10° N
Sich 1 Rocket 3.8 14:08:51 10° SSW 14:13:24 77° WNW 14:17:56 10° N
Cosmos 2297 Rocket 2.5 14:09:23 10° NNW 14:14:52 46° NE 14:20:19 10° ESE
Lacrosse 4 Rocket 2.2 14:11:35 10° S 14:15:15 33° ESE 14:18:10 14° ENE
IRS-1C 4.2 14:10:44 10° SE 14:15:53 53° ENE 14:21:05 10° N
Cosmos 2208 Rocket 4.2 14:10:54 10° NNW 14:15:55 48° NE 14:20:55 10° SE
SPOT 1/Viking Rocket 4.3 14:13:02 10° ESE 14:17:32 31° ENE 14:22:05 10° N
USA 215 3.3 14:11:37 10° E 14:18:10 78° N 14:24:44 10° W
Cosmos 1758 Rocket 3.9 14:15:59 10° N 14:20:07 40° ENE 14:24:11 10° SE
Cosmos 773 Rocket 4.1 14:15:19 10° NNW 14:20:23 50° NE 14:25:28 10° SE
ATLAS CENTAUR R/B 1.0 14:17:20 10° NW 14:20:33 45° NE 14:23:39 10° ESE
Cosmos 1400 Rocket 4.2 14:18:09 10° SW 14:21:32 33° WNW 14:24:54 10° N
MOS 1 Rocket 3.8 14:17:08 10° SE 14:21:39 41° ENE 14:26:27 10° N
ARIANE 5 R/B 2.5 14:16:51 10° SE 14:21:47 58° ENE 14:26:49 10° N
IGS 5A 3.4 14:18:59 10° SSE 14:22:57 85° WSW 14:26:57 10° NNW
AQUARIUS 4.4 14:18:58 10° SE 14:23:07 43° ENE 14:27:18 10° N
Cosmos 2219 4.5 14:20:05 10° NNW 14:24:31 22° NNE 14:27:34 15° ENE
Okean 2 Rocket 3.9 14:21:19 10° SSW 14:25:35 51° WNW 14:29:53 10° N
Cosmos 2084 Rocket 3.8 14:22:02 10° NW 14:26:05 43° NNE 14:29:24 14° E
Cosmos 2026 Rocket 4.2 14:20:33 10° NNW 14:26:44 79° W 14:33:01 10° S
UNK 4.1 14:22:33 10° NNE 14:26:57 42° E 14:31:18 10° S
Okean 1 Rocket 3.6 14:22:46 10° SSW 14:27:02 58° WNW 14:31:19 10° N
Cosmos 2098 Rocket 4.0 14:24:06 10° SE 14:27:17 24° E 14:30:30 12° NNE
Cosmos 2084 4.0 14:24:08 10° SSW 14:28:03 39° SE 14:30:44 18° ENE
Iridium 51 3.8 14:27:00 10° SSE 14:30:01 51° E 14:33:07 10° NNE
CZ-2D R/B 4.4 14:27:13 10° ESE 14:30:46 27° ENE 14:34:19 10° N
Cosmos 1634 Rocket 4.0 14:24:42 10° S 14:30:47 61° E 14:36:52 10° NNE
NOSS 3-3 (C) 4.4 14:24:14 10° NW 14:31:08 73° NNE 14:39:30 10° ESE
Radarsat 4.5 14:28:01 10° SSE 14:33:11 76° ENE 14:38:23 10° NNW
USA 281 4.5 14:32:29 15° ENE 14:35:42 22° NNE 14:40:27 10° NNW
SL-08 ROCKET BODY 4.3 14:36:35 10° N 14:42:29 68° ENE 14:48:26 10° SSE
Cosmos 2228 2.9 14:39:53 10° S 14:44:04 63° E 14:48:17 10° NNE
Cosmos 1626 Rocket 3.4 14:41:16 10° N 14:45:40 76° ENE 14:49:58 10° SSE
Cosmos 405 Rocket 2.2 14:43:01 10° NNW 14:46:19 86° ENE 14:49:35 10° SSE
BREEZE-M DEB (TANK) 3.5 14:43:44 10° WSW 14:46:25 40° SSE 14:52:00 13° ESE
Cosmos 1092 Rocket 4.4 14:40:37 10° NNW 14:46:45 66° W 14:52:49 10° S
Thor Agena Rocket 4.0 14:41:44 10° S 14:46:56 66° WSW 14:52:07 10° NNW
CZ-4C R/B 2.7 14:43:56 10° NW 14:50:14 71° NE 14:58:19 10° ESE
Cosmos 2279 Rocket 4.0 14:45:17 10° S 14:51:22 61° E 14:57:30 10° NNE
Okean 1-7 Rocket 4.0 14:47:29 10° N 14:51:39 38° ENE 14:55:45 10° SE
SJ-6F 4.2 14:49:31 10° SSE 14:53:26 66° ENE 14:57:26 10° N
Cosmos 1844 Rocket 4.2 14:50:12 10° NNW 14:54:04 18° NNE 14:55:45 16° NE
Intercosmos 24 4.0 14:49:25 10° NNW 14:54:05 80° W 14:57:44 10° S
NOSS 3-2 (A) 3.8 14:52:16 10° S 14:56:57 37° ESE 14:59:40 24° ENE
Cosmos 1356 Rocket 3.3 14:53:15 10° SSW 14:57:17 90° SE 15:01:15 11° NNE
Cosmos 292 Rocket 3.9 14:52:45 10° SW 14:57:34 74° WNW 15:01:41 14° NNE
Cosmos 2263 Rocket 2.9 14:55:01 10° NNW 15:00:09 34° NE 15:02:25 25° E
IRIDIUM 104 4.3 14:56:20 10° N 15:01:32 61° E 15:06:42 10° SSE
Cosmos 1315 Rocket 2.8 14:59:30 10° SSW 15:03:19 75° WNW 15:06:48 13° N
Resurs 1-3 3.9 14:59:25 10° SE 15:03:26 40° ENE 15:07:29 10° N
BlueWalker 3 3.1 15:00:39 10° W 15:04:02 37° SSW 15:06:43 14° SE
Cosmos 2227 Rocket 2.4 15:00:05 10° NNW 15:05:35 49° NE 15:09:24 19° ESE
IRS-P3 4.1 15:00:58 10° SSE 15:06:18 89° ENE 15:11:40 10° NNW
Cosmos 1544 Rocket 3.5 15:02:18 10° S 15:06:38 63° E 15:10:12 15° NNE
SL-16 R/B 2.9 15:03:23 10° NNE 15:09:34 64° WNW 15:15:42 10° SW
SKYMED 2 4.2 15:09:23 33° ENE 15:09:58 35° E 15:13:57 10° SSE
IRAS Rocket 4.3 15:05:10 10° SE 15:10:29 54° ENE 15:15:49 10° NNW
IRIDIUM 114 4.2 15:05:27 10° N 15:10:42 72° E 15:15:55 10° SSE
SJ-12 4.2 15:08:34 10° S 15:12:18 61° WSW 15:16:05 10° NNW
SAR-Lupe-4 4.4 15:10:01 10° S 15:13:29 51° WSW 15:16:59 10° NNW
Cosmos 2369 Rocket 3.2 15:08:31 10° WSW 15:13:53 43° NW 15:18:24 15° NNE
Spot 4 Rocket 3.9 15:12:53 10° SSE 15:17:55 63° ENE 15:22:59 10° NNW
Cosmos 1867 3.5 15:14:00 10° NW 15:19:29 72° NE 15:22:45 25° ESE
IRIDIUM 103 4.2 15:14:37 10° N 15:19:54 83° E 15:25:08 10° S
USA 290 2.1 15:17:22 10° NNW 15:20:39 89° ENE 15:21:49 37° SSE
Cosmos 2278 Rocket 4.1 15:16:52 10° WNW 15:20:46 19° NNW 15:23:47 13° NNE
Meteor 1-20 Rocket 4.0 15:15:31 10° NNW 15:21:03 82° ENE 15:26:31 10° SSE
Resurs 01 Rocket 3.1 15:23:11 21° NNE 15:23:11 21° NNE 15:25:06 10° N
Cosmos 2142 Rocket 4.5 15:15:31 10° S 15:21:53 75° E 15:28:17 10° NNE
Cosmos 2151 2.8 15:17:45 10° NNW 15:21:55 89° E 15:26:05 10° S
Cosmos 1602 Rocket 3.5 15:18:26 10° NNW 15:22:54 87° W 15:27:17 10° S
Cosmos 2266 Rocket 3.9 15:17:13 10° N 15:23:30 83° ENE 15:29:37 10° SSE
CZ-2D R/B 4.4 15:23:51 10° SSW 15:26:46 35° W 15:29:44 10° NNW
NOSS 2-2 (C) 3.0 15:25:32 10° SW 15:28:13 53° S 15:28:13 53° S
Cosmos 1943 Rocket 4.1 15:27:08 10° NW 15:30:43 17° NNW 15:33:07 13° NNE
Cosmos 1697 Rocket 3.9 15:26:14 10° SSE 15:29:16 23° SE 15:29:16 23° SE
Cosmos 1782 2.6 15:28:24 10° SSW 15:32:00 77° WNW 15:33:16 38° N
Lacrosse 5 rocket 1.2 15:29:24 10° SW 15:33:04 55° SSE 15:33:05 55° SSE
Cosmos 1743 3.1 15:30:24 10° NNW 15:33:35 51° W 15:36:45 10° S
Cosmos 1777 Rocket 4.2 15:29:23 10° S 15:34:22 45° ESE 15:34:54 43° E
IRIDIUM 106 4.5 15:32:58 10° N 15:38:12 74° W 15:43:24 10° S
Cosmos 1607 4.2 15:33:26 10° NW 15:39:36 68° SW 15:45:49 10° SSE
USA 81 4.3 15:34:57 10° N 15:39:37 45° ENE 15:39:37 45° ENE
COSMO-SKYMED 1 3.9 15:42:45 24° SSE 15:42:45 24° SSE 15:44:38 10° S
GEOS 3 Rocket 4.0 15:39:06 32° NE 15:41:33 63° NNW 15:46:52 10° WSW
YAOGAN 1 2.4 15:38:06 10° SSE 15:42:22 88° E 15:46:40 10° NNW
Meteor 1-25 Rocket 4.3 15:39:45 10° NNW 15:45:38 85° WSW 15:51:27 10° S
Cosmos 1486 Rocket 3.9 15:40:53 10° SSW 15:46:02 67° ESE 15:47:12 51° NE
SL-19 R/B 4.1 15:41:33 10° SSE 15:46:54 88° ENE 15:52:32 10° NNW
PSLV R/B 3.2 15:45:17 27° SSE 15:47:26 89° E 15:51:31 10° NNW
OceanSat 1 rocket 4.5 15:43:41 10° SSE 15:48:27 83° ENE 15:53:12 10° NNW
Cosmos 2082 4.2 15:43:28 10° NNW 15:48:44 39° NE 15:48:44 39° NE
Lacrosse 4 Rocket 2.1 15:49:06 10° WSW 15:53:01 45° NW 15:53:40 41° NNW
ATLAS CENTAUR R/B 2.6 15:52:25 10° WNW 15:55:17 28° SW 15:56:00 26° SSW
SPOT 1/Viking Rocket 4.1 15:51:31 10° S 15:56:39 58° W 16:01:49 10° NNW
BREEZE-M DEB (TANK) 4.0 15:54:17 10° W 15:57:49 70° S 16:00:56 38° ESE
Cosmos 1825 Rocket 3.6 15:53:27 10° NNW 15:57:51 77° W 16:02:11 10° S
CENTAUR R/B 2.8 15:52:51 10° WSW 15:58:56 70° NNW 16:02:03 37° NE
Cosmos 2297 Rocket 3.1 15:53:34 10° NW 15:58:59 48° WSW 16:04:23 10° S
NOAA 6 3.9 15:54:43 10° SSE 15:59:51 90° ENE 16:04:59 10° NNW
USA 215 3.2 15:58:37 40° ESE 16:01:14 82° SSW 16:07:50 10° WNW
Cosmos 1655 Rocket 3.9 15:57:22 10° N 16:03:42 88° E 16:09:56 10° S
Cosmos 2098 Rocket 3.9 16:00:50 10° SSW 16:04:37 47° WNW 16:07:34 19° N
Cosmos 2084 Rocket 3.8 16:00:53 10° WNW 16:05:02 57° SW 16:05:17 56° SSW
CZ-2D R/B 4.4 16:01:25 10° S 16:05:31 48° W 16:09:35 10° NNW
Cosmos 2084 3.9 16:02:32 10° WSW 16:06:27 53° NW 16:06:27 53° NW
Meteor 1-5 Rocket 4.0 16:02:56 10° NNW 16:08:16 84° WSW 16:13:39 10° S
Cosmos 2219 3.3 16:04:13 10° NNW 16:09:29 56° NNE 16:09:29 56° NNE
Cosmos 1656 3.7 16:10:31 10° SW 16:16:10 77° NW 16:17:23 56° NNE
Cosmos 1241 Rocket 4.3 16:11:16 10° SW 16:17:39 89° SE 16:18:47 63° NE
USA 281 3.5 16:19:21 48° NE 16:19:21 48° NE 16:25:16 10° NNW
Meteor 2-10 4.4 16:25:44 10° NNW 16:29:55 58° NNW 16:29:55 58° NNW
Cosmos 1538 Rocket 4.4 16:31:57 10° NNW 16:36:16 60° NW 16:36:16 60° NW
CZ-4C R/B 3.7 16:32:06 10° NW 16:38:37 49° SW 16:44:46 17° SSE
Cosmos 1844 Rocket 4.0 16:34:17 10° NNW 16:37:23 28° N 16:37:23 28° N
Meteor 2-20 4.4 16:35:01 10° S 16:40:48 80° SSW 16:40:48 80° SSW
Cosmos 2360 4.4 16:36:22 10° SW 16:42:03 70° NW 16:42:03 70° NW
NOSS 3-2 (C) 3.9 16:38:33 10° SW 16:41:55 43° SSW 16:41:55 43° SSW
Cosmos 2263 Rocket 2.4 16:38:54 10° NW 16:44:07 69° W 16:44:07 69° W
NOSS 3-2 (A) 3.5 16:41:57 10° WSW 16:47:01 68° NW 16:47:01 68° NW
Cosmos 2227 Rocket 3.1 16:44:18 10° NW 16:49:38 44° WSW 16:51:16 35° SSW
Resurs 01 Rocket 4.0 17:00:35 17° NNW 17:00:35 17° NNW 17:01:44 10° NNW
Cosmos 2369 Rocket 4.1 16:55:23 10° WNW 16:59:25 19° NNW 17:00:10 19° N
Cosmos 2278 Rocket 4.3 17:03:21 10° NNW 17:05:36 16° N 17:05:36 16° N
Lacrosse 5 rocket 4.3 17:06:24 10° W 17:06:42 12° W 17:06:42 12° W
Cosmos 1697 Rocket 4.3 17:08:34 10° SW 17:11:02 27° SW 17:11:02 27° SW
Cosmos 1943 Rocket 4.4 17:12:59 10° NNW 17:14:36 15° NNW 17:14:36 15° NNW
USA 215 4.3 17:45:58 38° WSW 17:45:58 38° WSW 17:50:57 10° WNW
CENTAUR R/B 3.8 17:44:11 10° WNW 17:49:10 41° NW 17:49:10 41° NW
ACS3 Solar Sail 4.4 23:39:17 10° NNE 23:39:55 13° NNE 23:39:55 13° NNE
